Wind_Speed
18 18 18 18 19 19 19 19 20 20 19 19 18 18 18 18 19 19 19 19 19 20 20 21 21 22 22 23 24 24 24 24 24 23 23 22 22 22 23 23 23 23 24
19 18 19 20 20 20 20 19 19 20 20 20 20 19 19 19 20 20 20 20 20 21 22 22 22 22 23 23 23 23 24 24 24 23 23 23 22 22 23 23 23 24 25
19 20 20 21 21 22 21 20 21 21 21 21 21 20 20 21 21 21 21 22 21 22 22 23 23 23 23 23 23 23 24 25 25 25 24 24 24 25 25 25 25 26 26
20 21 22 22 22 22 22 22 22 22 23 23 22 22 22 22 23 23 23 23 22 22 23 23 24 24 24 24 24 25 25 25 26 26 26 26 26 26 26 26 27 27 28
22 22 23 23 23 23 23 23 24 24 24 24 23 23 24 24 24 25 25 24 24 23 24 24 25 25 25 25 25 25 26 26 26 26 26 26 26 26 26 26 27 27 28
24 24 24 24 24 24 24 24 25 25 26 25 25 25 25 25 25 25 25 25 25 24 24 25 26 27 26 26 26 26 26 26 27 27 27 27 27 27 27 27 27 27 27
25 25 25 25 25 25 26 26 26 26 26 26 26 26 26 25 25 26 27 27 25 25 25 25 25 25 26 26 27 27 27 27 27 27 27 27 26 26 27 27 26 26 26
25 25 25 26 26 26 27 27 27 27 27 27 27 27 27 26 26 26 26 25 25 25 25 25 26 27 27 27 27 26 26 26 26 26 26 26 27 26 26 26 26 26 26
26 26 26 27 27 28 28 28 28 28 28 28 28 28 28 28 28 26 26 25 26 26 26 27 27 27 28 27 27 26 26 26 26 27 27 27 26 26 26 26 26 27 27
26 26 27 27 28 28 28 28 28 28 28 28 28 28 28 28 27 26 26 26 27 27 28 28 28 28 28 28 27 27 26 26 27 28 27 27 27 26 27 27 27 27 27
27 27 28 28 29 29 29 29 28 28 28 29 28 28 27 27 27 27 27 27 27 27 28 28 28 28 28 28 28 28 27 27 27 27 27 27 26 26 27 27 27 27 27
27 27 28 28 29 29 29 29 29 28 29 29 28 27 27 26 27 27 27 28 28 28 28 28 28 28 28 28 28 28 28 28 27 27 27 26 26 26 26 26 26 27 27
27 27 28 28 28 28 28 28 29 29 28 27 27 26 26 27 27 27 28 29 29 29 28 28 28 28 29 28 28 27 27 26 26 26 26 26 26 26 26 26 26 26 26
28 28 28 28 28 27 27 28 28 27 27 27 27 27 27 28 29 28 28 29 29 29 29 30 30 30 29 28 28 27 26 26 26 26 26 26 26 26 26 25 25 25 25
28 28 27 27 26 27 27 27 27 27 27 27 28 28 28 29 29 29 29 30 30 30 31 31 31 30 28 27 26 26 26 27 26 26 26 26 26 26 25 25 24 24 24
28 28 27 27 27 27 27 27 27 27 27 27 28 28 29 29 29 29 29 30 30 31 31 30 29 28 28 27 26 26 26 26 26 26 25 24 24 24 24 23 23 23 23
28 28 28 28 28 28 28 28 28 27 28 28 28 28 29 29 29 29 30 30 30 30 29 29 28 28 27 26 26 26 25 25 24 24 23 23 23 23 23 23 23 23 22
29 29 29 29 29 29 29 29 29 28 28 28 28 29 29 30 29 30 30 29 29 29 28 28 27 27 26 25 24 24 24 23 22 22 22 22 22 22 22 23 23 23 22
29 29 30 29 29 29 29 29 29 28 28 28 29 29 29 29 29 29 28 28 28 27 26 26 26 26 25 24 24 24 23 22 22 22 22 21 21 21 21 21 21 22 22
28 29 29 29 29 29 29 29 28 29 29 29 29 29 29 29 29 28 28 28 27 26 26 26 26 26 25 24 24 24 23 23 23 22 22 21 21 21 21 21 21 21 21
29 28 28 28 27 27 27 27 28 28 29 29 29 28 28 28 28 27 27 27 27 27 27 26 26 26 25 25 25 25 24 24 23 22 22 21 21 21 21 21 21 21 21
28 28 28 27 27 27 27 27 28 28 29 29 28 28 28 28 27 26 26 27 27 27 27 27 27 26 26 25 25 24 24 24 23 22 21 21 20 20 20 20 20 20 20
29 28 27 27 27 27 27 28 28 29 28 28 28 27 27 27 27 26 27 28 28 28 27 27 27 26 25 25 24 24 24 24 23 22 21 21 20 19 19 19 19 19 19
28 27 27 27 27 27 27 28 28 28 28 27 27 27 27 27 26 26 27 27 28 27 27 27 26 25 25 25 25 24 24 22 22 21 21 20 19 19 18 18 18 18 19
28 28 27 27 27 27 27 28 28 28 27 27 27 27 27 27 26 26 26 26 26 26 26 26 25 24 25 25 24 24 23 22 21 20 19 19 19 19 19 19 19 19 19
27 27 27 27 27 27 27 27 27 27 27 27 27 27 26 26 25 25 25 25 26 26 25 25 25 25 24 23 23 23 23 22 20 20 20 20 20 20 19 20 20 19 19
Wind_Direction
318 319 321 322 321 320 319 321 322 322 321 320 317 315 313 310 310 308 306 298 297 297 297 296 295 294 292 290 288 288 288 288 286 285 282 278 276 274 272 271 269 270 269
318 317 318 318 320 320 318 317 319 321 322 321 317 313 311 309 308 307 305 303 298 297 297 298 298 295 293 291 290 288 287 287 287 284 282 281 279 275 272 269 268 267 265
317 317 318 317 318 318 318 316 316 317 318 318 316 312 309 308 306 305 303 302 299 297 296 296 297 297 293 291 290 288 286 285 286 285 282 280 279 277 273 271 270 269 266
314 315 315 315 314 314 314 314 315 315 315 314 313 311 309 308 307 305 303 300 298 297 296 296 295 294 293 292 291 290 287 284 284 283 283 281 279 277 275 274 272 270 270
313 313 313 312 311 311 313 313 313 313 313 313 311 309 308 307 306 305 303 300 299 297 295 295 294 294 293 292 290 289 288 286 283 282 281 280 279 277 276 275 275 273 271
310 311 311 310 309 309 308 311 312 311 313 312 311 309 309 308 309 307 305 303 301 299 296 294 293 294 294 291 290 289 288 288 287 285 283 281 278 278 278 276 275 273 271
308 309 309 308 307 306 306 307 308 309 310 311 311 309 309 310 310 308 307 305 303 301 300 297 297 296 295 292 290 289 288 287 286 285 285 283 282 280 278 276 275 274 272
305 307 308 307 306 305 305 306 307 306 307 308 309 309 310 310 308 305 304 304 304 303 301 300 298 298 297 295 293 291 290 287 285 284 284 284 283 282 282 278 276 274 274
305 306 306 306 306 305 306 306 306 306 306 307 308 309 308 307 307 305 304 305 305 304 301 301 301 299 298 297 295 293 291 289 287 285 285 285 285 284 283 282 277 273 273
303 304 305 306 306 306 306 305 305 305 305 306 307 307 306 306 306 306 306 304 303 302 301 300 299 299 298 298 295 293 291 290 289 288 287 286 284 283 282 280 278 273 272
304 304 304 305 305 305 305 304 304 305 305 306 306 306 306 308 308 308 306 305 304 302 302 302 302 301 299 297 296 294 292 291 289 287 285 284 282 281 281 279 278 275 272
302 304 304 304 304 304 303 303 303 302 303 304 304 305 307 307 307 307 307 306 306 304 303 303 303 302 300 298 296 295 293 291 290 287 285 284 282 281 281 279 278 276 271
301 303 304 304 305 304 303 303 303 303 303 304 304 305 306 307 308 308 307 307 307 306 304 303 302 302 301 299 297 294 294 292 290 288 286 284 283 282 281 278 277 276 272
300 301 303 304 305 306 305 305 306 307 306 307 308 309 308 307 307 307 306 306 306 305 304 303 302 301 301 300 297 296 293 292 290 288 286 284 283 282 281 279 277 275 272
302 304 305 306 307 308 310 310 308 308 308 307 307 307 307 308 308 307 307 306 305 304 304 302 302 301 301 302 299 297 295 294 291 288 286 283 282 281 278 276 275 274 272
305 306 307 308 308 308 308 309 309 307 306 305 305 306 307 307 308 307 307 308 307 306 305 305 304 304 303 302 300 298 295 294 293 291 289 287 285 283 280 276 274 274 274
303 304 305 306 307 307 307 307 306 306 306 306 305 306 307 307 308 308 307 308 309 309 308 307 307 308 306 304 302 301 300 299 297 294 291 288 284 281 278 275 273 272 272
302 304 305 305 305 306 306 305 305 305 306 306 306 307 307 308 308 307 307 308 309 308 307 307 308 309 309 307 305 305 305 303 300 298 295 291 285 281 278 275 272 270 268
302 303 304 305 305 305 305 304 304 304 306 306 308 308 308 307 307 307 307 308 308 308 307 307 308 309 309 309 307 306 306 303 300 298 296 294 289 284 280 276 273 271 268
303 304 304 304 304 304 304 304 304 305 306 306 308 309 308 307 307 307 307 307 307 307 308 308 309 309 309 309 310 309 306 303 301 298 296 293 289 284 280 278 275 272 270
304 305 305 305 304 304 304 303 303 305 306 307 309 310 309 308 308 307 307 307 306 307 308 308 309 310 310 311 310 308 305 302 301 299 296 292 288 284 280 278 276 272 270
304 305 304 304 304 305 305 305 305 306 307 308 308 309 310 309 307 307 307 307 307 307 308 309 309 311 312 312 311 308 306 302 300 297 294 292 289 286 283 280 278 274 271
304 304 302 303 305 306 306 307 307 307 307 307 308 309 310 308 306 305 306 307 307 308 309 309 310 310 310 310 310 308 306 305 301 298 293 289 288 284 280 279 277 276 274
303 304 304 304 305 307 307 308 309 308 307 306 306 308 309 308 307 306 306 307 307 308 308 309 309 309 309 309 309 308 306 304 302 300 295 291 288 285 282 280 276 274 274
300 302 303 304 306 306 307 308 309 308 307 309 310 310 310 309 308 308 308 309 310 310 310 310 310 308 308 308 308 307 306 303 301 298 295 292 289 285 284 282 280 277 276
298 299 301 302 303 304 306 308 309 310 310 311 312 312 311 311 310 309 308 310 311 311 311 311 310 309 309 309 308 307 306 303 299 295 292 291 290 289 286 284 283 281 279
Height
5867 5865 5863 5861 5859 5856 5854 5852 5850 5847 5845 5843 5841 5839 5837 5835 5833 5831 5829 5827 5826 5825 5823 5822 5821 5820 5818 5817 5815 5814 5813 5812 5811 5810 5809 5808 5808 5808 5808 5808 5808 5809 5810
5864 5862 5860 5858 5856 5853 5851 5849 5847 5844 5842 5839 5837 5835 5833 5831 5829 5827 5825 5823 5821 5820 5818 5817 5815 5814 5812 5811 5810 5808 5807 5805 5804 5804 5803 5802 5802 5801 5801 5801 5802 5803 5803
5861 5859 5857 5854 5852 5850 5847 5845 5843 5841 5838 5836 5833 5831 5829 5827 5824 5822 5820 5818 5816 5815 5813 5811 5810 5808 5806 5805 5803 5802 5800 5799 5798 5797 5796 5795 5795 5794 5794 5794 5794 5794 5795
5857 5855 5853 5851 5848 5846 5843 5841 5839 5836 5834 5831 5829 5827 5824 5822 5819 5817 5815 5812 5810 5809 5807 5805 5803 5802 5800 5798 5797 5795 5794 5792 5791 5790 5789 5788 5788 5787 5787 5787 5787 5786 5787
5853 5851 5849 5846 5844 5842 5839 5837 5834 5832 5829 5827 5824 5822 5819 5817 5814 5811 5809 5807 5805 5803 5801 5799 5797 5795 5793 5792 5790 5788 5787 5785 5784 5783 5781 5781 5780 5779 5779 5778 5778 5778 5778
5849 5847 5844 5842 5839 5837 5835 5832 5829 5827 5824 5822 5819 5816 5813 5810 5808 5805 5803 5800 5798 5796 5794 5792 5790 5788 5786 5784 5782 5781 5779 5778 5776 5775 5774 5773 5772 5771 5770 5770 5770 5770 5770
5844 5841 5839 5837 5834 5832 5829 5827 5824 5822 5819 5816 5814 5810 5807 5804 5801 5799 5796 5794 5791 5789 5787 5785 5783 5780 5778 5776 5775 5773 5771 5770 5768 5767 5766 5764 5764 5763 5762 5761 5761 5760 5761
5838 5836 5834 5831 5829 5826 5824 5821 5819 5816 5813 5810 5808 5804 5801 5799 5796 5793 5791 5788 5785 5783 5780 5778 5775 5773 5771 5768 5767 5765 5763 5761 5760 5759 5757 5756 5755 5754 5753 5753 5752 5752 5752
5833 5830 5828 5826 5823 5820 5818 5815 5812 5810 5807 5804 5801 5798 5795 5793 5790 5787 5784 5781 5779 5776 5773 5771 5768 5766 5763 5761 5759 5757 5755 5753 5752 5750 5749 5748 5746 5745 5744 5744 5744 5743 5743
5827 5825 5822 5820 5817 5814 5811 5809 5806 5803 5800 5797 5795 5792 5789 5786 5783 5780 5777 5775 5772 5770 5767 5764 5761 5758 5755 5753 5750 5748 5747 5745 5743 5742 5741 5739 5738 5737 5736 5735 5735 5734 5734
5821 5819 5816 5813 5810 5807 5805 5802 5799 5796 5794 5791 5788 5785 5782 5779 5776 5774 5771 5768 5765 5762 5759 5756 5753 5750 5747 5745 5742 5740 5738 5736 5735 5733 5732 5730 5729 5728 5727 5726 5725 5725 5725
5815 5813 5810 5807 5803 5800 5798 5795 5792 5790 5787 5784 5781 5779 5776 5773 5770 5767 5764 5761 5758 5755 5752 5748 5745 5743 5739 5736 5734 5731 5729 5727 5725 5724 5722 5721 5720 5719 5718 5717 5717 5716 5716
5809 5806 5803 5800 5797 5794 5791 5788 5786 5783 5780 5777 5775 5772 5769 5767 5763 5760 5757 5754 5750 5747 5744 5741 5738 5735 5731 5728 5725 5722 5720 5718 5716 5715 5713 5712 5711 5710 5709 5708 5707 5707 5707
5802 5799 5797 5794 5791 5788 5785 5782 5779 5776 5773 5771 5768 5765 5763 5760 5757 5754 5750 5747 5744 5740 5737 5733 5730 5726 5723 5720 5716 5714 5711 5709 5707 5705 5704 5703 5701 5700 5699 5698 5698 5698 5698
5795 5792 5790 5787 5784 5781 5779 5776 5773 5770 5767 5764 5762 5759 5756 5753 5750 5747 5743 5740 5736 5733 5729 5725 5721 5718 5714 5711 5707 5705 5702 5700 5698 5696 5694 5693 5692 5691 5690 5689 5689 5689 5689
5789 5786 5784 5781 5778 5775 5772 5769 5766 5764 5761 5758 5755 5752 5749 5746 5743 5739 5736 5732 5728 5724 5720 5716 5713 5709 5706 5703 5700 5697 5694 5692 5689 5687 5686 5684 5683 5682 5681 5681 5680 5681 5681
5783 5780 5777 5775 5772 5769 5766 5763 5760 5757 5754 5751 5749 5746 5742 5739 5736 5732 5728 5724 5720 5716 5712 5709 5705 5702 5698 5695 5692 5689 5686 5683 5681 5679 5677 5676 5674 5673 5673 5672 5672 5672 5673
5776 5773 5770 5768 5764 5761 5759 5756 5753 5750 5747 5744 5741 5738 5735 5731 5728 5724 5721 5717 5713 5709 5705 5701 5698 5695 5691 5688 5685 5682 5679 5676 5674 5672 5669 5668 5666 5665 5665 5665 5665 5665 5666
5769 5766 5763 5760 5757 5754 5751 5748 5745 5742 5740 5737 5734 5731 5727 5724 5720 5716 5713 5709 5705 5701 5698 5694 5691 5688 5685 5681 5678 5675 5672 5669 5667 5665 5663 5661 5660 5658 5658 5657 5658 5658 5658
5762 5759 5756 5753 5750 5747 5744 5741 5738 5735 5732 5729 5726 5723 5719 5716 5712 5709 5705 5701 5698 5694 5691 5688 5684 5681 5678 5674 5671 5668 5665 5663 5660 5658 5656 5654 5653 5652 5651 5651 5651 5651 5651
5754 5751 5749 5745 5742 5739 5736 5733 5730 5727 5724 5721 5718 5715 5711 5708 5704 5701 5698 5694 5690 5687 5684 5681 5678 5674 5670 5667 5664 5661 5658 5655 5653 5651 5649 5647 5646 5645 5644 5644 5644 5643 5644
5746 5744 5741 5738 5735 5732 5729 5726 5723 5720 5717 5713 5710 5707 5704 5700 5697 5694 5690 5687 5684 5680 5677 5674 5670 5667 5663 5660 5657 5654 5651 5648 5646 5644 5642 5641 5639 5638 5637 5637 5637 5636 5637
5740 5737 5734 5731 5728 5725 5722 5718 5715 5712 5709 5706 5703 5699 5696 5693 5689 5686 5683 5680 5676 5673 5670 5666 5663 5660 5657 5653 5650 5647 5644 5642 5639 5637 5635 5633 5632 5631 5630 5630 5630 5629 5629
5733 5729 5726 5724 5721 5718 5715 5712 5708 5705 5702 5699 5695 5692 5689 5686 5682 5679 5676 5672 5669 5666 5663 5659 5656 5653 5650 5647 5643 5640 5637 5635 5632 5630 5628 5626 5625 5624 5624 5623 5622 5622 5622
5725 5723 5720 5717 5714 5711 5708 5705 5702 5698 5695 5692 5688 5685 5681 5678 5675 5672 5669 5665 5662 5659 5656 5652 5649 5646 5643 5640 5637 5633 5630 5628 5625 5623 5621 5620 5619 5618 5617 5616 5616 5615 5615
5718 5715 5713 5710 5707 5705 5702 5698 5695 5692 5688 5685 5682 5678 5675 5671 5668 5665 5662 5659 5656 5652 5649 5646 5643 5640 5636 5633 5630 5627 5624 5621 5619 5617 5615 5614 5612 5611 5610 5609 5609 5608 5608